Showing default

VRSS-2, 42954

Orbit data source: Space-Track

VRSS-2, 42954 is a payload satellite owned by ABAE (VE) in SSO that was launched on Mon, 09 Oct 2017 UTC via a CHANG ZHENG 2D launch vehicle from the Jiuquan Satellite Launch Center, China (JSC). Payload-class satellites include a variety of spacecraft equipped with specific instruments for various scientific and technological missions. These include communications satellites like Starlink; space stations such as the ISS; scientific satellites like the Hubble; Earth observation satellites from companies like Planet Labs, Umbra, and HawkEye 360; GPS; miniature CubeSats for education and research; and military/defense satellites.

Loading next visibility...
Identifier
42954, 2017-060A
Orbit
SSO
Country
Flag of UnknownUnknown / VENZ
Related business
Manufacturer
DFH
Mission
Operational Civil Imaging
Bus & Motor
CAST-2000, AOCS
Mass
942 kg wet, ~900 kg dry
Launch date (UTC)
2017-10-09 (8 years ago)
Launch vehicle
CHANG ZHENG 2D
Launch site
Jiuquan Satellite Launch Center, China (JSC)
Object type
Payload
Rocket body
Debris
Shape & HBR
Box + 2 Pan, 4.0 m
Radar Cross Section
8.358 m², Large (>1 m²)

Expand to show TLE details & history
Last TLE update: 8 hours ago

TLE from 8 hours ago
0 VRSS-2
1 42954U 17060A   25261.29379594  .00000862  00000-0  11895-3 0  9995
2 42954  97.6924 305.7854 0015743 268.4284  91.5125 14.80498156428215
Epoch: 2025-09-18T07:03Z
TLE epoch observation values (Epoch: 2025-09-18T07:03:03.969Z)
Latitude
-0.00005°
Longitude
-157.43859°
Altitude
631.089 km
Speed
7.543 km/s
True Right ascension
20h 23m 08s
True Declination
0° 00' 00"
Sunlit
Object was in full shadow at epoch
Visualization orbit readout
Latitude
Unknown
Longitude
Unknown
Altitude
Unknown
Speed
Unknown
Apparent Right ascension
Unknown
Apparent Declination
Unknown
Sunlit
N/A
Visualization observer readout
Local Sidereal Time
07:31:04
Azimuth
Unknown
Elevation
Unknown
Doppler factor
Unknown
Orbital elements
Apogee altitude
635.808 km
Perigee altitude
613.758 km
Semi-major axis
7,002.92 km
Eccentricity
0.00157
Inclination
97.6924°
RAAN
305.7854°
Arg. of periapsis
268.4284°
True anomaly
91.69283°
Mean anomaly
91.5125°
Eccentric anomaly
91.60267°
Mean motion
3.7036 °/min
Orbital period
97.2 mins
BSTAR
0.00011895
Loading maneuver chart data...
Computing Atmospheric mass density...
Loading historical data...
Loading historical data...
Loading historical data...
Loading historical data...
Loading historical data...
Loading historical data...
Loading historical data...
Other satellites on launch #60 in the year 2017 (2017-10-09 UTC)

Documentation

Showing up to 5 results
|